TimeHST,TemperatureF,Dew PointF,Humidity,Sea Level PressureIn,VisibilityMPH,Wind Direction,Wind SpeedMPH,Gust SpeedMPH,PrecipitationIn,Events,Conditions,WindDirDegrees,DateUTC
12:53 AM,71.1,68.0,90,29.95,8.0,South,3.5,-,N/A,,Clear,170,2012-12-03 10:53:00
1:53 AM,69.1,66.0,90,29.95,8.0,WSW,4.6,-,N/A,,Clear,240,2012-12-03 11:53:00
2:53 AM,70.0,64.9,84,29.95,10.0,South,4.6,-,N/A,,Clear,190,2012-12-03 12:53:00
3:53 AM,69.1,64.0,84,29.94,10.0,West,5.8,-,N/A,,Clear,260,2012-12-03 13:53:00
4:53 AM,68.0,63.0,84,29.94,10.0,Calm,Calm,-,N/A,,Clear,0,2012-12-03 14:53:00
5:53 AM,66.9,64.0,90,29.94,10.0,Calm,Calm,-,N/A,,Clear,0,2012-12-03 15:53:00
6:53 AM,66.9,64.0,90,29.96,10.0,Calm,Calm,-,0.00,,Mostly Cloudy,0,2012-12-03 16:53:00
7:53 AM,71.1,64.9,81,29.98,10.0,SW,3.5,-,0.00,,Mostly Cloudy,230,2012-12-03 17:53:00
8:53 AM,78.1,66.0,66,30.00,10.0,Calm,Calm,-,N/A,,Mostly Cloudy,0,2012-12-03 18:53:00
9:53 AM,80.1,68.0,67,30.00,10.0,Calm,Calm,-,N/A,,Mostly Cloudy,0,2012-12-03 19:53:00
10:38 AM,82.4,68.0,62,29.99,10.0,North,5.8,-,N/A,,Scattered Clouds,10,2012-12-03 20:38:00
10:53 AM,82.0,68.0,62,29.98,10.0,NNW,3.5,-,N/A,,Scattered Clouds,340,2012-12-03 20:53:00
11:53 AM,82.0,70.0,67,29.96,10.0,NNE,9.2,-,N/A,,Mostly Cloudy,20,2012-12-03 21:53:00
12:53 PM,84.0,70.0,63,29.93,10.0,North,13.8,-,N/A,,Scattered Clouds,350,2012-12-03 22:53:00
1:53 PM,82.9,72.0,69,29.91,10.0,NNW,16.1,-,N/A,,Mostly Cloudy,330,2012-12-03 23:53:00
2:53 PM,82.0,71.1,69,29.91,10.0,North,16.1,-,N/A,,Scattered Clouds,360,2012-12-04 00:53:00
3:53 PM,80.1,71.1,74,29.92,10.0,North,12.7,-,N/A,,Scattered Clouds,360,2012-12-04 01:53:00
4:53 PM,78.1,72.0,81,29.94,10.0,North,10.4,-,N/A,,Clear,360,2012-12-04 02:53:00
5:53 PM,77.0,71.1,82,29.96,10.0,North,10.4,-,N/A,,Partly Cloudy,350,2012-12-04 03:53:00
6:53 PM,77.0,72.0,84,29.98,10.0,NNW,8.1,-,N/A,,Mostly Cloudy,330,2012-12-04 04:53:00
7:53 PM,75.9,70.0,82,29.99,10.0,West,3.5,-,N/A,,Scattered Clouds,260,2012-12-04 05:53:00
8:53 PM,75.0,70.0,84,30.00,10.0,SSE,4.6,-,N/A,,Mostly Cloudy,150,2012-12-04 06:53:00
9:22 PM,75.2,71.6,89,30.01,10.0,SE,3.5,-,N/A,,Mostly Cloudy,140,2012-12-04 07:22:00
9:30 PM,75.2,71.6,89,30.02,10.0,SE,3.5,-,N/A,,Mostly Cloudy,140,2012-12-04 07:30:00
9:53 PM,75.0,71.1,87,30.01,10.0,Calm,Calm,-,N/A,,Overcast,0,2012-12-04 07:53:00
10:51 PM,73.4,69.8,88,30.01,10.0,Calm,Calm,-,N/A,,Overcast,0,2012-12-04 08:51:00
10:53 PM,73.9,70.0,87,30.01,10.0,Calm,Calm,-,N/A,,Overcast,0,2012-12-04 08:53:00
11:19 PM,73.4,69.8,88,30.01,9.0,Calm,Calm,-,N/A,,Overcast,0,2012-12-04 09:19:00
11:53 PM,72.0,69.1,91,30.00,9.0,WSW,3.5,-,N/A,,Mostly Cloudy,240,2012-12-04 09:53:00